Time,TemperatureF,DewpointF,PressureIn,WindDirection,WindDirectionDegrees,WindSpeedMPH,WindSpeedGustMPH,Humidity,HourlyPrecipIn,Conditions,Clouds,dailyrainin,SoftwareType,DateUTC
2013-01-26 00:00:00,24.9,20.8,30.26,WSW,249,0.0,0.0,84,0.00,BKN,,0.00,WeatherDisplay:10.37,2013-01-26 05:00:00,
2013-01-26 00:01:00,24.9,20.8,30.26,WSW,249,0.0,0.0,84,0.00,BKN,,0.00,WeatherDisplay:10.37,2013-01-26 05:01:00,
2013-01-26 00:03:00,24.8,20.7,30.26,WSW,249,1.1,0.0,84,0.00,SCT,,0.00,WeatherDisplay:10.37,2013-01-26 05:03:00,
2013-01-26 00:08:00,24.6,20.5,30.26,WSW,249,2.3,0.0,84,0.00,SCT,,0.00,WeatherDisplay:10.37,2013-01-26 05:08:00,
2013-01-26 00:13:00,24.5,20.4,30.26,WSW,249,2.3,2.3,84,0.00,SCT,,0.00,WeatherDisplay:10.37,2013-01-26 05:13:00,
2013-01-26 00:18:00,24.5,20.4,30.26,WSW,249,0.0,0.0,84,0.00,SCT,,0.00,WeatherDisplay:10.37,2013-01-26 05:18:00,
2013-01-26 00:23:00,24.4,20.3,30.26,WSW,249,3.5,3.5,84,0.00,SCT,,0.00,WeatherDisplay:10.37,2013-01-26 05:23:00,
2013-01-26 00:28:00,24.4,20.3,30.26,WSW,249,1.1,1.1,84,0.00,SCT,,0.00,WeatherDisplay:10.37,2013-01-26 05:28:00,
2013-01-26 00:33:00,24.5,20.6,30.26,WSW,249,2.3,2.3,85,0.00,SCT,,0.00,WeatherDisplay:10.37,2013-01-26 05:33:00,
2013-01-26 00:38:00,24.5,20.4,30.26,WSW,249,2.3,2.3,84,0.00,SCT,,0.00,WeatherDisplay:10.37,2013-01-26 05:38:00,
2013-01-26 00:43:00,24.5,20.6,30.26,WSW,249,3.5,3.5,85,0.00,SCT,,0.00,WeatherDisplay:10.37,2013-01-26 05:43:00,
2013-01-26 00:48:00,24.5,20.6,30.26,WSW,249,1.1,1.1,85,0.00,SCT,,0.00,WeatherDisplay:10.37,2013-01-26 05:48:00,
2013-01-26 00:53:00,24.5,20.6,30.26,WSW,249,4.0,4.0,85,0.00,SCT,,0.00,WeatherDisplay:10.37,2013-01-26 05:53:00,
2013-01-26 00:58:00,24.5,20.6,30.26,WSW,249,4.0,4.0,85,0.00,SCT,,0.00,WeatherDisplay:10.37,2013-01-26 05:58:00,
2013-01-26 01:03:00,24.6,20.7,30.26,WSW,247,2.3,2.3,85,0.00,CLR,,0.00,WeatherDisplay:10.37,2013-01-26 06:03:00,
2013-01-26 01:08:00,24.6,20.7,30.26,WSW,247,4.0,4.0,85,0.00,CLR,,0.00,WeatherDisplay:10.37,2013-01-26 06:08:00,
2013-01-26 01:13:00,24.7,20.8,30.26,WSW,246,6.0,6.0,85,0.00,CLR,,0.00,WeatherDisplay:10.37,2013-01-26 06:13:00,
2013-01-26 01:18:00,24.8,20.9,30.26,WSW,245,3.5,3.5,85,0.00,CLR,,0.00,WeatherDisplay:10.37,2013-01-26 06:18:00,
2013-01-26 01:23:00,24.8,20.9,30.27,WSW,245,6.0,6.0,85,0.00,CLR,,0.00,WeatherDisplay:10.37,2013-01-26 06:23:00,
2013-01-26 01:28:00,24.9,21.0,30.27,WSW,239,5.0,5.0,85,0.00,CLR,,0.00,WeatherDisplay:10.37,2013-01-26 06:28:00,
2013-01-26 01:33:00,25.1,21.2,30.27,SW,233,7.0,7.0,85,0.00,CLR,,0.00,WeatherDisplay:10.37,2013-01-26 06:33:00,
2013-01-26 01:38:00,25.1,21.2,30.27,SW,233,6.0,6.0,85,0.00,CLR,,0.00,WeatherDisplay:10.37,2013-01-26 06:38:00,
2013-01-26 01:43:00,25.2,21.3,30.27,SW,234,5.0,5.0,85,0.00,CLR,,0.00,WeatherDisplay:10.37,2013-01-26 06:43:00,
2013-01-26 01:48:00,25.3,21.4,30.27,SW,229,10.4,10.4,85,0.00,CLR,,0.00,WeatherDisplay:10.37,2013-01-26 06:48:00,
2013-01-26 01:53:00,25.4,21.5,30.27,SW,234,8.1,8.1,85,0.00,CLR,,0.00,WeatherDisplay:10.37,2013-01-26 06:53:00,
2013-01-26 01:58:00,25.6,21.7,30.27,WSW,237,10.0,10.0,85,0.00,CLR,,0.00,WeatherDisplay:10.37,2013-01-26 06:58:00,
2013-01-26 02:03:00,25.6,21.7,30.27,WSW,245,7.0,7.0,85,0.00,SCT,,0.00,WeatherDisplay:10.37,2013-01-26 07:03:00,
2013-01-26 02:08:00,25.6,21.7,30.27,WSW,245,6.9,6.9,85,0.00,SCT,,0.00,WeatherDisplay:10.37,2013-01-26 07:08:00,
2013-01-26 02:13:00,25.4,21.5,30.27,SW,229,8.0,8.0,85,0.00,SCT,,0.00,WeatherDisplay:10.37,2013-01-26 07:13:00,
2013-01-26 02:18:00,25.3,21.4,30.27,WSW,247,4.6,4.6,85,0.00,SCT,,0.00,WeatherDisplay:10.37,2013-01-26 07:18:00,
2013-01-26 02:23:00,25.1,21.2,30.27,WSW,244,3.5,3.5,85,0.00,SCT,,0.00,WeatherDisplay:10.37,2013-01-26 07:23:00,
2013-01-26 02:28:00,25.0,21.1,30.27,WSW,250,5.0,5.0,85,0.00,SCT,,0.00,WeatherDisplay:10.37,2013-01-26 07:28:00,
2013-01-26 02:33:00,24.9,21.0,30.27,WSW,249,4.6,4.6,85,0.00,SCT,,0.00,WeatherDisplay:10.37,2013-01-26 07:33:00,
2013-01-26 02:38:00,24.9,21.0,30.27,WSW,244,8.1,8.1,85,0.00,SCT,,0.00,WeatherDisplay:10.37,2013-01-26 07:38:00,
2013-01-26 02:43:00,24.9,21.0,30.27,SW,236,8.1,8.1,85,0.00,SCT,,0.00,WeatherDisplay:10.37,2013-01-26 07:43:00,
2013-01-26 02:48:00,24.9,21.3,30.27,SW,234,5.0,5.0,86,0.00,SCT,,0.00,WeatherDisplay:10.37,2013-01-26 07:48:00,
2013-01-26 02:53:00,24.9,21.3,30.27,SW,236,11.5,11.5,86,0.00,SCT,,0.00,WeatherDisplay:10.37,2013-01-26 07:53:00,
2013-01-26 02:58:00,24.9,21.3,30.27,SW,234,5.0,5.0,86,0.00,SCT,,0.00,WeatherDisplay:10.37,2013-01-26 07:58:00,
2013-01-26 03:03:00,25.0,21.4,30.27,WSW,244,6.0,6.0,86,0.00,BKN,,0.00,WeatherDisplay:10.37,2013-01-26 08:03:00,
2013-01-26 03:08:00,25.1,21.5,30.27,WSW,249,7.0,7.0,86,0.00,BKN,,0.00,WeatherDisplay:10.37,2013-01-26 08:08:00,
2013-01-26 03:13:00,25.1,21.5,30.27,WSW,249,7.0,7.0,86,0.00,BKN,,0.00,WeatherDisplay:10.37,2013-01-26 08:13:00,
2013-01-26 03:18:00,25.2,21.6,30.27,SW,236,4.0,4.0,86,0.00,BKN,,0.00,WeatherDisplay:10.37,2013-01-26 08:18:00,
2013-01-26 03:23:00,25.2,21.6,30.27,SW,234,5.0,5.0,86,0.00,BKN,,0.00,WeatherDisplay:10.37,2013-01-26 08:23:00,
2013-01-26 03:28:00,25.3,21.7,30.27,SW,232,6.9,6.9,86,0.00,BKN,,0.00,WeatherDisplay:10.37,2013-01-26 08:28:00,
2013-01-26 03:33:00,25.4,21.8,30.27,SW,231,6.0,6.0,86,0.00,BKN,,0.00,WeatherDisplay:10.37,2013-01-26 08:33:00,
2013-01-26 03:38:00,25.4,22.1,30.27,SW,234,8.1,8.1,87,0.00,BKN,,0.00,WeatherDisplay:10.37,2013-01-26 08:38:00,
2013-01-26 03:43:00,25.5,22.2,30.27,SW,234,5.8,5.8,87,0.00,BKN,,0.00,WeatherDisplay:10.37,2013-01-26 08:43:00,
2013-01-26 03:48:00,25.6,22.3,30.27,SW,232,6.9,6.9,87,0.00,BKN,,0.00,WeatherDisplay:10.37,2013-01-26 08:48:00,
2013-01-26 03:53:00,25.6,22.3,30.27,SW,230,6.0,6.0,87,0.00,BKN,,0.00,WeatherDisplay:10.37,2013-01-26 08:53:00,
2013-01-26 03:58:00,25.6,22.3,30.27,SW,232,6.0,6.0,87,0.00,BKN,,0.00,WeatherDisplay:10.37,2013-01-26 08:58:00,
2013-01-26 04:03:00,25.7,22.4,30.26,SW,232,6.0,6.0,87,0.00,OVC,,0.00,WeatherDisplay:10.37,2013-01-26 09:03:00,
2013-01-26 04:08:00,25.8,22.5,30.27,SW,234,6.0,6.0,87,0.00,OVC,,0.00,WeatherDisplay:10.37,2013-01-26 09:08:00,
2013-01-26 04:13:00,25.9,22.6,30.27,SW,234,3.0,3.0,87,0.00,OVC,,0.00,WeatherDisplay:10.37,2013-01-26 09:13:00,
2013-01-26 04:18:00,26.0,22.7,30.27,SW,232,4.0,4.0,87,0.00,OVC,,0.00,WeatherDisplay:10.37,2013-01-26 09:18:00,
2013-01-26 04:23:00,26.1,22.8,30.27,SW,233,4.6,4.6,87,0.00,OVC,,0.00,WeatherDisplay:10.37,2013-01-26 09:23:00,
2013-01-26 04:28:00,26.2,22.9,30.27,SW,236,6.0,6.0,87,0.00,OVC,,0.00,WeatherDisplay:10.37,2013-01-26 09:28:00,
2013-01-26 04:33:00,26.2,22.9,30.27,WSW,243,2.3,2.3,87,0.00,OVC,,0.00,WeatherDisplay:10.37,2013-01-26 09:33:00,
2013-01-26 04:38:00,26.3,23.0,30.27,WSW,239,6.0,6.0,87,0.00,OVC,,0.00,WeatherDisplay:10.37,2013-01-26 09:38:00,
2013-01-26 04:43:00,26.3,23.0,30.27,WSW,240,7.0,7.0,87,0.00,OVC,,0.00,WeatherDisplay:10.37,2013-01-26 09:43:00,
2013-01-26 04:48:00,26.4,23.1,30.27,WSW,240,4.6,4.6,87,0.00,OVC,,0.00,WeatherDisplay:10.37,2013-01-26 09:48:00,
2013-01-26 04:53:00,26.5,23.2,30.27,WSW,241,7.0,7.0,87,0.00,OVC,,0.00,WeatherDisplay:10.37,2013-01-26 09:53:00,
2013-01-26 04:58:00,26.6,23.3,30.27,WSW,245,8.1,8.1,87,0.00,OVC,,0.00,WeatherDisplay:10.37,2013-01-26 09:58:00,
2013-01-26 05:03:00,26.6,23.3,30.27,WSW,243,5.0,5.0,87,0.00,OVC,,0.00,WeatherDisplay:10.37,2013-01-26 10:03:00,
2013-01-26 05:08:00,26.6,23.3,30.27,WSW,243,5.0,5.0,87,0.00,OVC,,0.00,WeatherDisplay:10.37,2013-01-26 10:08:00,
2013-01-26 05:13:00,26.6,23.3,30.27,WSW,243,5.0,5.0,87,0.00,OVC,,0.00,WeatherDisplay:10.37,2013-01-26 10:13:00,
2013-01-26 05:18:00,26.6,23.3,30.26,WSW,243,5.0,5.0,87,0.00,OVC,,0.00,WeatherDisplay:10.37,2013-01-26 10:18:00,
2013-01-26 05:23:00,26.6,23.3,30.27,WSW,243,5.0,5.0,87,0.00,OVC,,0.00,WeatherDisplay:10.37,2013-01-26 10:23:00,
2013-01-26 05:28:00,26.7,23.4,30.27,WSW,244,5.8,5.8,87,0.00,OVC,,0.00,WeatherDisplay:10.37,2013-01-26 10:28:00,
2013-01-26 05:33:00,26.8,23.4,30.27,West,279,5.0,5.0,87,0.00,OVC,,0.00,WeatherDisplay:10.37,2013-01-26 10:33:00,
2013-01-26 05:38:00,26.9,23.5,30.27,West,272,5.0,5.0,87,0.00,OVC,,0.00,WeatherDisplay:10.37,2013-01-26 10:38:00,
2013-01-26 05:43:00,26.8,23.4,30.27,WSW,252,3.0,3.0,87,0.00,OVC,,0.00,WeatherDisplay:10.37,2013-01-26 10:43:00,
2013-01-26 05:48:00,26.9,23.5,30.27,WSW,251,7.0,7.0,87,0.00,OVC,,0.00,WeatherDisplay:10.37,2013-01-26 10:48:00,
2013-01-26 05:53:00,26.9,23.5,30.28,WSW,253,7.0,7.0,87,0.00,OVC,,0.00,WeatherDisplay:10.37,2013-01-26 10:53:00,
2013-01-26 05:58:00,26.9,23.5,30.28,WSW,255,3.5,3.5,87,0.00,OVC,,0.00,WeatherDisplay:10.37,2013-01-26 10:58:00,
2013-01-26 06:03:00,27.0,23.6,30.28,WSW,255,4.0,4.0,87,0.00,OVC,,0.00,WeatherDisplay:10.37,2013-01-26 11:03:00,
2013-01-26 06:08:00,27.0,23.6,30.28,WSW,255,3.5,3.5,87,0.00,OVC,,0.00,WeatherDisplay:10.37,2013-01-26 11:08:00,
2013-01-26 06:13:00,26.9,23.5,30.28,WSW,255,5.0,5.0,87,0.00,OVC,,0.00,WeatherDisplay:10.37,2013-01-26 11:13:00,
2013-01-26 06:18:00,26.8,23.4,30.28,WSW,255,4.0,4.0,87,0.00,OVC,,0.00,WeatherDisplay:10.37,2013-01-26 11:18:00,
2013-01-26 06:23:00,26.6,23.3,30.28,WSW,255,3.5,3.5,87,0.00,OVC,,0.00,WeatherDisplay:10.37,2013-01-26 11:23:00,
2013-01-26 06:28:00,26.5,23.2,30.28,WSW,255,2.3,2.3,87,0.00,OVC,,0.00,WeatherDisplay:10.37,2013-01-26 11:28:00,
2013-01-26 06:33:00,26.4,23.1,30.28,WSW,255,5.0,5.0,87,0.00,OVC,,0.00,WeatherDisplay:10.37,2013-01-26 11:33:00,
2013-01-26 06:38:00,26.2,22.9,30.29,WSW,255,1.1,0.0,87,0.00,OVC,,0.00,WeatherDisplay:10.37,2013-01-26 11:38:00,
2013-01-26 06:43:00,26.0,22.7,30.29,WSW,255,1.1,0.0,87,0.00,OVC,,0.00,WeatherDisplay:10.37,2013-01-26 11:43:00,
2013-01-26 06:48:00,25.9,22.6,30.29,WSW,255,3.5,3.5,87,0.00,OVC,,0.00,WeatherDisplay:10.37,2013-01-26 11:48:00,
2013-01-26 06:53:00,25.8,22.5,30.30,WSW,255,3.5,3.5,87,0.00,OVC,,0.00,WeatherDisplay:10.37,2013-01-26 11:53:00,
2013-01-26 06:58:00,25.7,22.4,30.30,WSW,255,3.5,3.5,87,0.00,OVC,,0.00,WeatherDisplay:10.37,2013-01-26 11:58:00,
2013-01-26 07:03:00,25.7,22.4,30.30,WSW,255,3.5,3.5,87,0.00,OVC,,0.00,WeatherDisplay:10.37,2013-01-26 12:03:00,
2013-01-26 07:09:00,25.6,22.3,30.31,WSW,255,1.1,1.1,87,0.00,OVC,,0.00,WeatherDisplay:10.37,2013-01-26 12:09:00,
2013-01-26 07:14:00,25.4,22.1,30.31,WSW,255,0.0,0.0,87,0.00,OVC,,0.00,WeatherDisplay:10.37,2013-01-26 12:14:00,
2013-01-26 07:19:00,25.3,22.0,30.31,WSW,255,1.1,1.1,87,0.00,OVC,,0.00,WeatherDisplay:10.37,2013-01-26 12:19:00,
2013-01-26 07:24:00,25.1,21.8,30.31,WSW,255,1.1,1.1,87,0.00,OVC,,0.00,WeatherDisplay:10.37,2013-01-26 12:24:00,
2013-01-26 07:29:00,24.8,21.5,30.32,WSW,255,0.0,0.0,87,0.00,OVC,,0.00,WeatherDisplay:10.37,2013-01-26 12:29:00,
2013-01-26 07:34:00,24.7,21.4,30.32,WSW,255,0.0,0.0,87,0.00,OVC,,0.00,WeatherDisplay:10.37,2013-01-26 12:34:00,
2013-01-26 07:39:00,24.6,21.3,30.33,WSW,255,2.0,2.0,87,0.00,OVC,,0.00,WeatherDisplay:10.37,2013-01-26 12:39:00,
2013-01-26 07:44:00,24.4,21.1,30.33,WSW,255,1.1,1.1,87,0.00,OVC,,0.00,WeatherDisplay:10.37,2013-01-26 12:44:00,
2013-01-26 07:49:00,24.3,21.0,30.33,WSW,255,0.0,0.0,87,0.00,OVC,,0.00,WeatherDisplay:10.37,2013-01-26 12:49:00,
2013-01-26 07:54:00,24.2,20.9,30.34,WSW,255,1.1,0.0,87,0.00,OVC,,0.00,WeatherDisplay:10.37,2013-01-26 12:54:00,
2013-01-26 07:59:00,24.0,20.7,30.34,WSW,255,0.0,0.0,87,0.00,OVC,,0.00,WeatherDisplay:10.37,2013-01-26 12:59:00,
2013-01-26 08:04:00,23.9,20.6,30.34,WSW,255,0.0,0.0,87,0.00,BKN,,0.00,WeatherDisplay:10.37,2013-01-26 13:04:00,
2013-01-26 08:09:00,23.8,20.5,30.34,WSW,255,0.0,0.0,87,0.00,BKN,,0.00,WeatherDisplay:10.37,2013-01-26 13:09:00,
2013-01-26 08:14:00,23.8,20.5,30.35,WSW,255,0.0,0.0,87,0.00,BKN,,0.00,WeatherDisplay:10.37,2013-01-26 13:14:00,
2013-01-26 08:19:00,23.8,20.5,30.35,WSW,255,0.0,0.0,87,0.00,BKN,,0.00,WeatherDisplay:10.37,2013-01-26 13:19:00,
2013-01-26 08:24:00,23.8,20.5,30.35,WSW,255,0.0,0.0,87,0.00,BKN,,0.00,WeatherDisplay:10.37,2013-01-26 13:24:00,
2013-01-26 08:29:00,23.8,20.5,30.35,WSW,255,1.0,1.0,87,0.00,BKN,,0.00,WeatherDisplay:10.37,2013-01-26 13:29:00,
2013-01-26 08:34:00,23.8,20.5,30.35,WSW,255,1.1,1.1,87,0.00,BKN,,0.00,WeatherDisplay:10.37,2013-01-26 13:34:00,
2013-01-26 08:39:00,23.9,20.6,30.35,WSW,255,1.1,1.1,87,0.00,BKN,,0.00,WeatherDisplay:10.37,2013-01-26 13:39:00,
2013-01-26 08:44:00,23.9,20.6,30.35,WSW,255,1.1,0.0,87,0.00,BKN,,0.00,WeatherDisplay:10.37,2013-01-26 13:44:00,
2013-01-26 08:49:00,24.0,20.7,30.35,WSW,255,2.3,2.3,87,0.00,BKN,,0.00,WeatherDisplay:10.37,2013-01-26 13:49:00,
2013-01-26 08:54:00,24.0,20.7,30.35,WSW,255,1.1,1.1,87,0.00,BKN,,0.00,WeatherDisplay:10.37,2013-01-26 13:54:00,
2013-01-26 08:59:00,24.1,20.8,30.36,WSW,255,2.3,0.0,87,0.00,BKN,,0.00,WeatherDisplay:10.37,2013-01-26 13:59:00,
2013-01-26 09:04:00,24.2,20.9,30.36,WSW,255,1.1,1.1,87,0.00,CLR,,0.00,WeatherDisplay:10.37,2013-01-26 14:04:00,
2013-01-26 09:09:00,24.3,21.0,30.36,WSW,255,1.1,1.1,87,0.00,CLR,,0.00,WeatherDisplay:10.37,2013-01-26 14:09:00,
2013-01-26 09:14:00,24.4,21.1,30.37,WSW,255,1.1,0.0,87,0.00,CLR,,0.00,WeatherDisplay:10.37,2013-01-26 14:14:00,
2013-01-26 09:19:00,24.5,21.2,30.37,WSW,255,2.3,2.3,87,0.00,CLR,,0.00,WeatherDisplay:10.37,2013-01-26 14:19:00,
2013-01-26 09:24:00,24.7,21.4,30.37,WSW,255,3.0,3.0,87,0.00,CLR,,0.00,WeatherDisplay:10.37,2013-01-26 14:24:00,
2013-01-26 09:29:00,24.9,21.6,30.37,WSW,255,1.1,0.0,87,0.00,CLR,,0.00,WeatherDisplay:10.37,2013-01-26 14:29:00,
2013-01-26 09:34:00,25.2,21.9,30.37,WSW,255,2.3,2.3,87,0.00,CLR,,0.00,WeatherDisplay:10.37,2013-01-26 14:34:00,
2013-01-26 09:39:00,25.4,22.1,30.37,WSW,257,4.6,4.6,87,0.00,CLR,,0.00,WeatherDisplay:10.37,2013-01-26 14:39:00,
2013-01-26 09:44:00,25.8,22.5,30.38,WSW,257,3.5,3.5,87,0.00,CLR,,0.00,WeatherDisplay:10.37,2013-01-26 14:44:00,
2013-01-26 09:49:00,25.8,22.5,30.38,West,259,3.5,3.5,87,0.00,CLR,,0.00,WeatherDisplay:10.37,2013-01-26 14:49:00,
2013-01-26 09:54:00,26.0,22.7,30.38,NW,321,6.0,6.0,87,0.00,CLR,,0.00,WeatherDisplay:10.37,2013-01-26 14:54:00,
2013-01-26 09:59:00,26.1,22.8,30.39,NNW,343,4.0,4.0,87,0.00,CLR,,0.00,WeatherDisplay:10.37,2013-01-26 14:59:00,
2013-01-26 10:04:00,26.2,22.9,30.39,North,355,4.0,4.0,87,0.00,CLR,,0.00,WeatherDisplay:10.37,2013-01-26 15:04:00,
2013-01-26 10:09:00,26.5,22.9,30.39,North,2,6.0,6.0,86,0.00,CLR,,0.00,WeatherDisplay:10.37,2013-01-26 15:09:00,
2013-01-26 10:14:00,26.6,22.7,30.38,NNE,12,4.6,4.6,85,0.00,CLR,,0.00,WeatherDisplay:10.37,2013-01-26 15:14:00,
2013-01-26 10:19:00,26.8,22.6,30.38,NE,39,7.0,7.0,84,0.00,CLR,,0.00,WeatherDisplay:10.37,2013-01-26 15:19:00,
2013-01-26 10:24:00,27.0,22.2,30.38,NE,53,5.0,5.0,82,0.00,CLR,,0.00,WeatherDisplay:10.37,2013-01-26 15:24:00,
2013-01-26 10:29:00,27.1,21.7,30.38,NE,46,5.8,5.8,80,0.00,CLR,,0.00,WeatherDisplay:10.37,2013-01-26 15:29:00,
2013-01-26 10:34:00,27.1,21.2,30.38,NE,48,5.8,5.8,78,0.00,CLR,,0.00,WeatherDisplay:10.37,2013-01-26 15:34:00,
2013-01-26 10:39:00,27.3,21.3,30.38,ENE,58,10.4,10.4,78,0.00,CLR,,0.00,WeatherDisplay:10.37,2013-01-26 15:39:00,
2013-01-26 10:44:00,27.4,21.1,30.38,NE,54,5.8,5.8,77,0.00,CLR,,0.00,WeatherDisplay:10.37,2013-01-26 15:44:00,
2013-01-26 10:49:00,27.5,20.9,30.39,NE,35,4.6,4.6,76,0.00,CLR,,0.00,WeatherDisplay:10.37,2013-01-26 15:49:00,
2013-01-26 10:54:00,27.5,20.6,30.39,NE,40,3.5,0.0,75,0.00,CLR,,0.00,WeatherDisplay:10.37,2013-01-26 15:54:00,
2013-01-26 10:59:00,27.7,20.8,30.39,NE,43,2.3,2.3,75,0.00,CLR,,0.00,WeatherDisplay:10.37,2013-01-26 15:59:00,
2013-01-26 11:04:00,28.1,21.2,30.39,NE,43,3.5,3.5,75,0.00,CLR,,0.00,WeatherDisplay:10.37,2013-01-26 16:04:00,
2013-01-26 11:09:00,28.4,21.2,30.39,NE,43,4.0,4.0,74,0.00,CLR,,0.00,WeatherDisplay:10.37,2013-01-26 16:09:00,
2013-01-26 11:14:00,28.4,20.8,30.39,NE,43,5.0,5.0,73,0.00,CLR,,0.00,WeatherDisplay:10.37,2013-01-26 16:14:00,
2013-01-26 11:19:00,28.3,20.7,30.40,NE,44,5.0,5.0,73,0.00,CLR,,0.00,WeatherDisplay:10.37,2013-01-26 16:19:00,
2013-01-26 11:24:00,28.4,20.8,30.40,NE,42,6.9,6.9,73,0.00,CLR,,0.00,WeatherDisplay:10.37,2013-01-26 16:24:00,
2013-01-26 11:29:00,28.6,21.0,30.40,NE,42,3.5,3.5,73,0.00,CLR,,0.00,WeatherDisplay:10.37,2013-01-26 16:29:00,
2013-01-26 11:34:00,29.0,21.4,30.40,NE,41,3.5,0.0,73,0.00,CLR,,0.00,WeatherDisplay:10.37,2013-01-26 16:34:00,
2013-01-26 11:39:00,29.1,21.2,30.40,NE,41,5.0,5.0,72,0.00,CLR,,0.00,WeatherDisplay:10.37,2013-01-26 16:39:00,
2013-01-26 11:44:00,29.2,21.0,30.40,NE,37,3.5,3.5,71,0.00,CLR,,0.00,WeatherDisplay:10.37,2013-01-26 16:44:00,
2013-01-26 11:49:00,29.4,21.2,30.41,NE,38,4.0,4.0,71,0.00,CLR,,0.00,WeatherDisplay:10.37,2013-01-26 16:49:00,
2013-01-26 11:54:00,29.3,20.7,30.41,NE,49,8.1,8.1,70,0.00,CLR,,0.00,WeatherDisplay:10.37,2013-01-26 16:54:00,
2013-01-26 11:59:00,29.2,20.6,30.40,NE,48,3.5,3.5,70,0.00,CLR,,0.00,WeatherDisplay:10.37,2013-01-26 16:59:00,
2013-01-26 12:04:00,29.6,21.7,30.40,NE,47,4.0,4.0,72,0.00,FEW,,0.00,WeatherDisplay:10.37,2013-01-26 17:04:00,
2013-01-26 12:09:00,29.8,21.2,30.41,NE,43,3.5,3.5,70,0.00,FEW,,0.00,WeatherDisplay:10.37,2013-01-26 17:09:00,
2013-01-26 12:14:00,29.9,21.0,30.40,NE,47,6.0,6.0,69,0.00,FEW,,0.00,WeatherDisplay:10.37,2013-01-26 17:14:00,
2013-01-26 12:19:00,30.1,21.2,30.40,NE,46,2.3,2.3,69,0.00,FEW,,0.00,WeatherDisplay:10.37,2013-01-26 17:19:00,
2013-01-26 12:24:00,30.3,21.3,30.40,North,2,5.0,5.0,69,0.00,FEW,,0.00,WeatherDisplay:10.37,2013-01-26 17:24:00,
2013-01-26 12:29:00,30.7,21.7,30.40,North,2,4.0,4.0,69,0.00,FEW,,0.00,WeatherDisplay:10.37,2013-01-26 17:29:00,
2013-01-26 12:34:00,30.5,20.8,30.39,NNE,25,4.0,4.0,67,0.00,FEW,,0.00,WeatherDisplay:10.37,2013-01-26 17:34:00,
2013-01-26 12:39:00,30.2,20.9,30.39,NNE,16,4.0,4.0,68,0.00,FEW,,0.00,WeatherDisplay:10.37,2013-01-26 17:39:00,
2013-01-26 12:44:00,30.2,20.9,30.39,NNE,16,3.5,3.5,68,0.00,FEW,,0.00,WeatherDisplay:10.37,2013-01-26 17:44:00,
2013-01-26 12:49:00,31.0,22.0,30.39,North,357,4.6,4.6,69,0.00,FEW,,0.00,WeatherDisplay:10.37,2013-01-26 17:49:00,
2013-01-26 12:54:00,31.2,21.5,30.38,North,354,2.3,2.3,67,0.00,FEW,,0.00,WeatherDisplay:10.37,2013-01-26 17:54:00,
2013-01-26 12:59:00,31.3,21.6,30.38,NE,37,8.1,8.1,67,0.01,RA,,0.01,WeatherDisplay:10.37,2013-01-26 17:59:00,
2013-01-26 13:04:00,31.2,21.5,30.38,NNE,32,3.5,3.5,67,0.01,RA,,0.01,WeatherDisplay:10.37,2013-01-26 18:04:00,
2013-01-26 13:09:00,31.5,21.8,30.38,NNE,28,2.3,2.3,67,0.01,RA,,0.01,WeatherDisplay:10.37,2013-01-26 18:09:00,
2013-01-26 13:14:00,31.1,21.1,30.38,WNW,282,5.0,5.0,66,0.01,FEW,,0.01,WeatherDisplay:10.37,2013-01-26 18:14:00,
2013-01-26 13:19:00,31.5,21.8,30.38,WNW,299,4.0,4.0,67,0.01,FEW,,0.01,WeatherDisplay:10.37,2013-01-26 18:19:00,
2013-01-26 13:24:00,31.9,22.2,30.38,WNW,299,3.5,3.5,67,0.01,FEW,,0.01,WeatherDisplay:10.37,2013-01-26 18:24:00,
2013-01-26 13:29:00,32.0,21.9,30.38,WNW,301,4.0,4.0,66,0.01,FEW,,0.01,WeatherDisplay:10.37,2013-01-26 18:29:00,
2013-01-26 13:34:00,31.6,21.2,30.38,WNW,301,3.5,3.5,65,0.01,FEW,,0.01,WeatherDisplay:10.37,2013-01-26 18:34:00,
2013-01-26 13:39:00,31.7,22.0,30.37,WNW,301,0.0,0.0,67,0.01,FEW,,0.01,WeatherDisplay:10.37,2013-01-26 18:39:00,
2013-01-26 13:44:00,32.1,22.0,30.37,WNW,301,0.0,0.0,66,0.01,FEW,,0.01,WeatherDisplay:10.37,2013-01-26 18:44:00,
2013-01-26 13:49:00,32.5,22.0,30.38,NW,304,5.0,5.0,65,0.01,FEW,,0.01,WeatherDisplay:10.37,2013-01-26 18:49:00,
2013-01-26 13:54:00,32.9,22.0,30.37,NW,316,4.0,4.0,64,0.01,FEW,,0.01,WeatherDisplay:10.37,2013-01-26 18:54:00,
2013-01-26 13:59:00,32.6,21.4,30.38,NE,37,2.3,2.3,63,0.00,FEW,,0.01,WeatherDisplay:10.37,2013-01-26 18:59:00,
2013-01-26 14:04:00,32.8,22.3,30.38,NE,36,3.0,3.0,65,0.00,SCT,,0.01,WeatherDisplay:10.37,2013-01-26 19:04:00,
2013-01-26 14:09:00,33.2,22.0,30.37,NE,36,2.3,2.3,63,0.01,RA,,0.02,WeatherDisplay:10.37,2013-01-26 19:09:00,
2013-01-26 14:14:00,33.8,22.1,30.37,NE,36,1.1,1.1,62,0.01,RA,,0.02,WeatherDisplay:10.37,2013-01-26 19:14:00,
2013-01-26 14:19:00,34.4,22.3,30.37,NE,36,3.5,3.5,61,0.01,SCT,,0.02,WeatherDisplay:10.37,2013-01-26 19:19:00,
2013-01-26 14:24:00,34.0,21.6,30.37,NE,37,5.0,5.0,60,0.01,SCT,,0.02,WeatherDisplay:10.37,2013-01-26 19:24:00,
2013-01-26 14:29:00,34.0,22.3,30.37,NE,37,2.3,2.3,62,0.01,SCT,,0.02,WeatherDisplay:10.37,2013-01-26 19:29:00,
2013-01-26 14:34:00,34.9,22.0,30.37,NE,36,2.3,2.3,59,0.01,SCT,,0.02,WeatherDisplay:10.37,2013-01-26 19:34:00,
2013-01-26 14:39:00,35.0,22.1,30.38,NE,36,1.1,0.0,59,0.01,SCT,,0.02,WeatherDisplay:10.37,2013-01-26 19:39:00,
2013-01-26 14:44:00,34.8,21.5,30.38,NNE,25,5.0,5.0,58,0.01,SCT,,0.02,WeatherDisplay:10.37,2013-01-26 19:44:00,
2013-01-26 14:49:00,34.4,21.5,30.38,North,351,5.0,5.0,59,0.01,SCT,,0.02,WeatherDisplay:10.37,2013-01-26 19:49:00,
2013-01-26 14:54:00,34.4,21.9,30.38,North,351,2.0,2.0,60,0.01,SCT,,0.02,WeatherDisplay:10.37,2013-01-26 19:54:00,
2013-01-26 14:59:00,34.6,21.7,30.38,North,353,3.5,3.5,59,0.01,SCT,,0.02,WeatherDisplay:10.37,2013-01-26 19:59:00,
2013-01-26 15:04:00,35.1,21.8,30.38,NNW,348,4.0,4.0,58,0.02,RA,,0.03,WeatherDisplay:10.37,2013-01-26 20:04:00,
2013-01-26 15:09:00,34.9,21.6,30.38,NNW,347,3.5,3.5,58,0.01,RA,,0.03,WeatherDisplay:10.37,2013-01-26 20:09:00,
2013-01-26 15:14:00,34.7,21.0,30.38,NNW,347,3.5,3.5,57,0.01,CLR,,0.03,WeatherDisplay:10.37,2013-01-26 20:14:00,
2013-01-26 15:19:00,34.8,21.1,30.38,North,349,4.0,4.0,57,0.01,CLR,,0.03,WeatherDisplay:10.37,2013-01-26 20:19:00,
2013-01-26 15:24:00,34.8,21.1,30.38,North,349,4.0,4.0,57,0.01,CLR,,0.03,WeatherDisplay:10.37,2013-01-26 20:24:00,
2013-01-26 15:29:00,35.1,21.8,30.38,North,349,3.0,3.0,58,0.01,CLR,,0.03,WeatherDisplay:10.37,2013-01-26 20:29:00,
2013-01-26 15:34:00,35.2,21.1,30.39,North,349,3.5,3.5,56,0.01,CLR,,0.03,WeatherDisplay:10.37,2013-01-26 20:34:00,
2013-01-26 15:39:00,35.5,21.3,30.39,North,349,1.1,0.0,56,0.01,CLR,,0.03,WeatherDisplay:10.37,2013-01-26 20:39:00,
2013-01-26 15:44:00,36.0,22.2,30.39,North,350,5.0,5.0,57,0.01,CLR,,0.03,WeatherDisplay:10.37,2013-01-26 20:44:00,
2013-01-26 15:49:00,35.6,21.4,30.39,North,351,4.0,4.0,56,0.01,CLR,,0.03,WeatherDisplay:10.37,2013-01-26 20:49:00,
2013-01-26 15:54:00,35.8,21.6,30.39,North,351,3.5,3.5,56,0.01,CLR,,0.03,WeatherDisplay:10.37,2013-01-26 20:54:00,
2013-01-26 15:59:00,35.9,21.7,30.39,North,351,1.1,0.0,56,0.01,CLR,,0.03,WeatherDisplay:10.37,2013-01-26 20:59:00,
2013-01-26 16:04:00,36.5,21.8,30.39,NW,316,6.0,6.0,55,0.00,CLR,,0.03,WeatherDisplay:10.37,2013-01-26 21:04:00,
2013-01-26 16:09:00,36.0,20.9,30.39,WNW,290,6.0,6.0,54,0.00,CLR,,0.03,WeatherDisplay:10.37,2013-01-26 21:09:00,
2013-01-26 16:14:00,35.8,20.8,30.39,WNW,293,3.5,3.5,54,0.00,CLR,,0.03,WeatherDisplay:10.37,2013-01-26 21:14:00,
2013-01-26 16:19:00,35.6,20.6,30.39,WNW,293,4.0,4.0,54,0.00,CLR,,0.03,WeatherDisplay:10.37,2013-01-26 21:19:00,
2013-01-26 16:24:00,35.6,20.6,30.39,WNW,293,2.3,2.3,54,0.00,CLR,,0.03,WeatherDisplay:10.37,2013-01-26 21:24:00,
2013-01-26 16:29:00,36.0,20.9,30.39,WNW,293,2.3,2.3,54,0.00,CLR,,0.03,WeatherDisplay:10.37,2013-01-26 21:29:00,
2013-01-26 16:34:00,36.0,20.5,30.39,WNW,294,4.0,4.0,53,0.00,CLR,,0.03,WeatherDisplay:10.37,2013-01-26 21:34:00,
2013-01-26 16:39:00,35.6,20.1,30.40,WNW,294,3.5,3.5,53,0.00,CLR,,0.03,WeatherDisplay:10.37,2013-01-26 21:39:00,
2013-01-26 16:44:00,35.7,20.2,30.40,WNW,294,0.0,0.0,53,0.00,CLR,,0.03,WeatherDisplay:10.37,2013-01-26 21:44:00,
2013-01-26 16:49:00,35.9,20.4,30.40,WNW,297,3.5,3.5,53,0.00,CLR,,0.03,WeatherDisplay:10.37,2013-01-26 21:49:00,
2013-01-26 16:54:00,36.0,20.5,30.40,WNW,297,2.3,2.3,53,0.00,CLR,,0.03,WeatherDisplay:10.37,2013-01-26 21:54:00,
2013-01-26 16:59:00,36.2,20.7,30.39,WNW,298,4.0,4.0,53,0.00,CLR,,0.03,WeatherDisplay:10.37,2013-01-26 21:59:00,
2013-01-26 17:04:00,35.9,20.4,30.39,WNW,299,2.3,2.3,53,0.00,CLR,,0.03,WeatherDisplay:10.37,2013-01-26 22:04:00,
2013-01-26 17:09:00,35.6,19.7,30.40,WNW,299,3.5,3.5,52,0.00,CLR,,0.03,WeatherDisplay:10.37,2013-01-26 22:09:00,
2013-01-26 17:14:00,35.5,20.0,30.40,WNW,299,2.3,2.3,53,0.00,CLR,,0.03,WeatherDisplay:10.37,2013-01-26 22:14:00,
2013-01-26 17:19:00,35.4,19.5,30.39,WNW,299,3.5,3.5,52,0.00,CLR,,0.03,WeatherDisplay:10.37,2013-01-26 22:19:00,
2013-01-26 17:24:00,35.2,19.3,30.40,WNW,299,3.5,3.5,52,0.00,CLR,,0.03,WeatherDisplay:10.37,2013-01-26 22:24:00,
2013-01-26 17:29:00,34.9,19.0,30.40,WNW,298,3.5,3.5,52,0.00,CLR,,0.03,WeatherDisplay:10.37,2013-01-26 22:29:00,
2013-01-26 17:34:00,34.6,19.2,30.40,WNW,298,2.3,2.3,53,0.00,CLR,,0.03,WeatherDisplay:10.37,2013-01-26 22:34:00,
2013-01-26 17:39:00,34.4,19.0,30.40,WNW,299,2.3,2.3,53,0.00,CLR,,0.03,WeatherDisplay:10.37,2013-01-26 22:39:00,
2013-01-26 17:44:00,34.3,19.4,30.40,WNW,299,1.0,1.0,54,0.00,CLR,,0.03,WeatherDisplay:10.37,2013-01-26 22:44:00,
2013-01-26 17:49:00,34.0,19.1,30.40,WNW,299,2.3,0.0,54,0.00,CLR,,0.03,WeatherDisplay:10.37,2013-01-26 22:49:00,
2013-01-26 17:54:00,33.8,18.9,30.41,WNW,299,0.0,0.0,54,0.00,CLR,,0.03,WeatherDisplay:10.37,2013-01-26 22:54:00,
2013-01-26 17:59:00,33.6,19.1,30.41,WNW,299,0.0,0.0,55,0.00,CLR,,0.03,WeatherDisplay:10.37,2013-01-26 22:59:00,
2013-01-26 18:04:00,33.4,18.9,30.40,WNW,299,0.0,0.0,55,0.00,CLR,,0.03,WeatherDisplay:10.37,2013-01-26 23:04:00,
2013-01-26 18:09:00,33.2,18.8,30.40,WNW,299,0.0,0.0,55,0.00,CLR,,0.03,WeatherDisplay:10.37,2013-01-26 23:09:00,
2013-01-26 18:14:00,33.0,19.0,30.40,WNW,298,0.0,0.0,56,0.00,CLR,,0.03,WeatherDisplay:10.37,2013-01-26 23:14:00,
2013-01-26 18:19:00,32.8,18.8,30.40,WNW,299,0.0,0.0,56,0.00,CLR,,0.03,WeatherDisplay:10.37,2013-01-26 23:19:00,
2013-01-26 18:24:00,32.6,19.0,30.41,WNW,299,0.0,0.0,57,0.00,CLR,,0.03,WeatherDisplay:10.37,2013-01-26 23:24:00,
2013-01-26 18:29:00,32.5,18.9,30.41,WNW,298,0.0,0.0,57,0.00,CLR,,0.03,WeatherDisplay:10.37,2013-01-26 23:29:00,
2013-01-26 18:34:00,32.1,18.6,30.41,WNW,299,0.0,0.0,57,0.00,CLR,,0.03,WeatherDisplay:10.37,2013-01-26 23:34:00,
2013-01-26 18:39:00,31.8,18.3,30.42,WNW,299,0.0,0.0,57,0.00,CLR,,0.03,WeatherDisplay:10.37,2013-01-26 23:39:00,
2013-01-26 18:44:00,31.5,18.4,30.42,WNW,298,0.0,0.0,58,0.00,CLR,,0.03,WeatherDisplay:10.37,2013-01-26 23:44:00,
2013-01-26 18:49:00,31.2,18.5,30.42,WNW,299,0.0,0.0,59,0.00,CLR,,0.03,WeatherDisplay:10.37,2013-01-26 23:49:00,
2013-01-26 18:54:00,31.0,18.3,30.42,WNW,299,0.0,0.0,59,0.00,CLR,,0.03,WeatherDisplay:10.37,2013-01-26 23:54:00,
2013-01-26 18:59:00,30.9,18.6,30.42,WNW,298,0.0,0.0,60,0.00,CLR,,0.03,WeatherDisplay:10.37,2013-01-26 23:59:00,
2013-01-26 19:04:00,30.8,18.5,30.42,WNW,299,0.0,0.0,60,0.00,CLR,,0.03,WeatherDisplay:10.37,2013-01-27 00:04:00,
2013-01-26 19:09:00,30.7,18.4,30.42,WNW,298,0.0,0.0,60,0.00,CLR,,0.03,WeatherDisplay:10.37,2013-01-27 00:09:00,
2013-01-26 19:14:00,30.5,18.6,30.42,WNW,298,0.0,0.0,61,0.00,CLR,,0.03,WeatherDisplay:10.37,2013-01-27 00:14:00,
2013-01-26 19:19:00,30.2,18.4,30.42,WNW,299,0.0,0.0,61,0.00,CLR,,0.03,WeatherDisplay:10.37,2013-01-27 00:19:00,
2013-01-26 19:24:00,30.0,18.2,30.43,WNW,299,0.0,0.0,61,0.00,CLR,,0.03,WeatherDisplay:10.37,2013-01-27 00:24:00,
2013-01-26 19:29:00,29.7,18.3,30.43,WNW,299,0.0,0.0,62,0.00,CLR,,0.03,WeatherDisplay:10.37,2013-01-27 00:29:00,
2013-01-26 19:34:00,29.4,18.0,30.43,WNW,298,0.0,0.0,62,0.00,CLR,,0.03,WeatherDisplay:10.37,2013-01-27 00:34:00,
2013-01-26 19:39:00,29.1,18.1,30.43,WNW,299,0.0,0.0,63,0.00,CLR,,0.03,WeatherDisplay:10.37,2013-01-27 00:39:00,
2013-01-26 19:44:00,29.0,18.0,30.43,WNW,299,0.0,0.0,63,0.00,CLR,,0.03,WeatherDisplay:10.37,2013-01-27 00:44:00,
2013-01-26 19:49:00,28.9,18.2,30.44,WNW,298,0.0,0.0,64,0.00,CLR,,0.03,WeatherDisplay:10.37,2013-01-27 00:49:00,
2013-01-26 19:54:00,28.8,18.1,30.44,WNW,298,0.0,0.0,64,0.00,CLR,,0.03,WeatherDisplay:10.37,2013-01-27 00:54:00,
2013-01-26 19:59:00,28.6,18.0,30.44,WNW,299,0.0,0.0,64,0.00,CLR,,0.03,WeatherDisplay:10.37,2013-01-27 00:59:00,
2013-01-26 20:04:00,28.4,18.1,30.44,WNW,299,0.0,0.0,65,0.00,CLR,,0.03,WeatherDisplay:10.37,2013-01-27 01:04:00,
2013-01-26 20:09:00,28.1,17.8,30.43,WNW,298,0.0,0.0,65,0.00,CLR,,0.03,WeatherDisplay:10.37,2013-01-27 01:09:00,
2013-01-26 20:14:00,27.9,18.0,30.43,WNW,298,0.0,0.0,66,0.00,CLR,,0.03,WeatherDisplay:10.37,2013-01-27 01:14:00,
2013-01-26 20:19:00,27.8,17.9,30.44,WNW,298,0.0,0.0,66,0.00,CLR,,0.03,WeatherDisplay:10.37,2013-01-27 01:19:00,
2013-01-26 20:24:00,27.9,18.4,30.43,WNW,298,1.0,1.0,67,0.00,CLR,,0.03,WeatherDisplay:10.37,2013-01-27 01:24:00,
2013-01-26 20:29:00,28.2,18.6,30.43,WNW,298,1.0,1.0,67,0.00,CLR,,0.03,WeatherDisplay:10.37,2013-01-27 01:29:00,
2013-01-26 20:34:00,28.4,18.5,30.44,WNW,299,0.0,0.0,66,0.00,CLR,,0.03,WeatherDisplay:10.37,2013-01-27 01:34:00,
2013-01-26 20:39:00,28.4,18.5,30.44,WNW,299,0.0,0.0,66,0.00,CLR,,0.03,WeatherDisplay:10.37,2013-01-27 01:39:00,
2013-01-26 20:44:00,28.6,18.7,30.44,WNW,299,2.3,2.3,66,0.00,CLR,,0.03,WeatherDisplay:10.37,2013-01-27 01:44:00,
2013-01-26 20:49:00,28.8,18.5,30.44,WNW,299,3.0,3.0,65,0.00,CLR,,0.03,WeatherDisplay:10.37,2013-01-27 01:49:00,
2013-01-26 20:54:00,28.8,18.5,30.44,WNW,302,2.3,2.3,65,0.00,CLR,,0.03,WeatherDisplay:10.37,2013-01-27 01:54:00,
2013-01-26 20:59:00,28.8,18.1,30.44,NW,322,4.0,4.0,64,0.00,CLR,,0.03,WeatherDisplay:10.37,2013-01-27 01:59:00,
2013-01-26 21:04:00,28.8,18.1,30.45,NW,326,4.0,4.0,64,0.00,CLR,,0.03,WeatherDisplay:10.37,2013-01-27 02:04:00,
2013-01-26 21:09:00,28.8,18.1,30.45,NNW,333,4.0,4.0,64,0.00,CLR,,0.03,WeatherDisplay:10.37,2013-01-27 02:09:00,
2013-01-26 21:14:00,28.7,18.1,30.45,North,2,4.0,4.0,64,0.00,CLR,,0.03,WeatherDisplay:10.37,2013-01-27 02:14:00,
2013-01-26 21:19:00,28.7,18.1,30.45,NE,40,4.0,4.0,64,0.00,CLR,,0.03,WeatherDisplay:10.37,2013-01-27 02:19:00,
2013-01-26 21:24:00,28.5,17.9,30.45,NE,43,4.0,4.0,64,0.00,CLR,,0.03,WeatherDisplay:10.37,2013-01-27 02:24:00,
2013-01-26 21:29:00,28.4,17.8,30.45,NE,43,1.1,1.1,64,0.00,CLR,,0.03,WeatherDisplay:10.37,2013-01-27 02:29:00,
2013-01-26 21:34:00,28.1,17.5,30.46,NE,43,2.3,2.3,64,0.00,CLR,,0.03,WeatherDisplay:10.37,2013-01-27 02:34:00,
2013-01-26 21:39:00,28.0,17.7,30.46,NE,43,1.1,1.1,65,0.00,CLR,,0.03,WeatherDisplay:10.37,2013-01-27 02:39:00,
2013-01-26 21:44:00,27.9,17.6,30.46,NE,43,2.3,2.3,65,0.00,CLR,,0.03,WeatherDisplay:10.37,2013-01-27 02:44:00,
2013-01-26 21:49:00,27.8,17.6,30.45,NE,43,2.3,2.3,65,0.00,CLR,,0.03,WeatherDisplay:10.37,2013-01-27 02:49:00,
2013-01-26 21:54:00,27.8,17.9,30.45,NE,47,2.3,2.3,66,0.00,CLR,,0.03,WeatherDisplay:10.37,2013-01-27 02:54:00,
2013-01-26 21:59:00,27.8,17.9,30.46,NE,47,2.3,2.3,66,0.00,CLR,,0.03,WeatherDisplay:10.37,2013-01-27 02:59:00,
2013-01-26 22:04:00,27.9,18.0,30.46,NE,49,2.3,2.3,66,0.00,CLR,,0.03,WeatherDisplay:10.37,2013-01-27 03:04:00,
2013-01-26 22:09:00,27.8,17.9,30.47,NE,49,2.3,2.3,66,0.00,CLR,,0.03,WeatherDisplay:10.37,2013-01-27 03:09:00,
2013-01-26 22:14:00,27.7,17.8,30.47,NE,50,2.3,2.3,66,0.00,CLR,,0.03,WeatherDisplay:10.37,2013-01-27 03:14:00,
2013-01-26 22:19:00,27.6,17.7,30.47,NE,49,2.3,2.3,66,0.00,CLR,,0.03,WeatherDisplay:10.37,2013-01-27 03:19:00,
2013-01-26 22:24:00,27.5,17.6,30.47,NE,52,2.3,2.3,66,0.00,CLR,,0.03,WeatherDisplay:10.37,2013-01-27 03:24:00,
2013-01-26 22:29:00,27.4,17.5,30.47,NE,53,1.1,1.1,66,0.00,CLR,,0.03,WeatherDisplay:10.37,2013-01-27 03:29:00,
2013-01-26 22:34:00,27.3,17.8,30.47,SE,126,2.0,2.0,67,0.00,CLR,,0.03,WeatherDisplay:10.37,2013-01-27 03:34:00,
2013-01-26 22:39:00,27.2,17.7,30.47,SE,135,1.1,0.0,67,0.00,CLR,,0.03,WeatherDisplay:10.37,2013-01-27 03:39:00,
2013-01-26 22:44:00,27.2,17.7,30.47,SE,132,2.3,2.3,67,0.00,CLR,,0.03,WeatherDisplay:10.37,2013-01-27 03:44:00,
2013-01-26 22:49:00,27.1,17.6,30.48,SE,133,1.1,0.0,67,0.00,CLR,,0.03,WeatherDisplay:10.37,2013-01-27 03:49:00,
2013-01-26 22:54:00,27.0,17.8,30.48,SE,134,4.0,4.0,68,0.00,CLR,,0.03,WeatherDisplay:10.37,2013-01-27 03:54:00,
2013-01-26 22:59:00,26.9,17.7,30.48,SE,135,1.1,1.1,68,0.00,CLR,,0.03,WeatherDisplay:10.37,2013-01-27 03:59:00,
2013-01-26 23:04:00,26.7,17.6,30.48,SE,135,2.3,2.3,68,0.00,CLR,,0.03,WeatherDisplay:10.37,2013-01-27 04:04:00,
2013-01-26 23:09:00,26.6,17.5,30.48,SE,136,1.1,1.1,68,0.00,CLR,,0.03,WeatherDisplay:10.37,2013-01-27 04:09:00,
2013-01-26 23:14:00,26.5,17.4,30.48,SE,136,2.0,2.0,68,0.00,CLR,,0.03,WeatherDisplay:10.37,2013-01-27 04:14:00,
2013-01-26 23:19:00,26.4,17.6,30.48,SE,145,3.5,3.5,69,0.00,CLR,,0.03,WeatherDisplay:10.37,2013-01-27 04:19:00,
2013-01-26 23:24:00,26.4,17.6,30.47,SSE,148,4.0,4.0,69,0.00,CLR,,0.03,WeatherDisplay:10.37,2013-01-27 04:24:00,
2013-01-26 23:29:00,26.3,17.5,30.47,SE,143,4.0,4.0,69,0.00,CLR,,0.03,WeatherDisplay:10.37,2013-01-27 04:29:00,
2013-01-26 23:34:00,26.2,17.4,30.47,SSE,155,2.3,2.3,69,0.00,CLR,,0.03,WeatherDisplay:10.37,2013-01-27 04:34:00,
2013-01-26 23:39:00,26.2,17.4,30.47,SSE,158,1.1,1.1,69,0.00,CLR,,0.03,WeatherDisplay:10.37,2013-01-27 04:39:00,
2013-01-26 23:44:00,26.1,17.3,30.47,SSE,159,2.3,2.3,69,0.00,CLR,,0.03,WeatherDisplay:10.37,2013-01-27 04:44:00,
2013-01-26 23:49:00,26.1,17.3,30.47,SSE,157,2.3,2.3,69,0.00,CLR,,0.03,WeatherDisplay:10.37,2013-01-27 04:49:00,
2013-01-26 23:54:00,26.0,17.2,30.47,SSE,158,2.3,2.3,69,0.00,CLR,,0.03,WeatherDisplay:10.37,2013-01-27 04:54:00,
2013-01-26 23:59:00,26.0,17.2,30.46,South,171,1.1,1.1,69,0.00,CLR,,0.03,WeatherDisplay:10.37,2013-01-27 04:59:00,